User: anonymous   Login
Location: Unspecified
(0.0000°N, 0.0000°E)
Time: 04:07:09
(UTC+00:00)
Language:

DMSP 5D-3 F18 (USA 210) - Orbit

View from above orbital plane
View from above orbital plane
View from above satellite
View from above satellite

Ground track
Ground track

The orbit data is extracted from the following two-line orbital elements,

1 35951U 09057A   19054.58301663  .00000010  00000-0  28069-4 0  9995
2 35951  98.6177  56.5204 0010114 301.8834  58.1354 14.13175533482226
Epoch (UTC): 23 February 2019 13:59:32
Eccentricity: 0.0010114
inclination: 98.6177°
perigee height: 841 km
apogee height: 856 km
right ascension of ascending node: 56.5204°
argument of perigee: 301.8834°
revolutions per day: 14.13175533
mean anomaly at epoch: 58.1354°
orbit number at epoch: 48222

The dashed part of the orbit path shows where the satellite is in the earth's shadow,  

DLR